TimeCDT,TemperatureF,Dew PointF,Humidity,Sea Level PressureIn,VisibilityMPH,Wind Direction,Wind SpeedMPH,Gust SpeedMPH,PrecipitationIn,Events,Conditions,WindDirDegrees,DateUTC
12:52 AM,41.0,33.1,73,29.85,-9999.0,West,8.1,-,N/A,,Unknown,260,2013-10-27 05:52:00
1:52 AM,39.0,33.1,79,29.83,-9999.0,West,6.9,-,N/A,,Unknown,280,2013-10-27 06:52:00
2:52 AM,37.0,30.9,79,29.83,-9999.0,West,6.9,-,N/A,,Unknown,270,2013-10-27 07:52:00
3:52 AM,36.0,30.9,82,29.83,-9999.0,WNW,6.9,-,N/A,,Unknown,300,2013-10-27 08:52:00
4:52 AM,35.1,30.9,85,29.83,-9999.0,NNW,10.4,-,N/A,,Unknown,330,2013-10-27 09:52:00
5:52 AM,35.1,30.9,85,29.84,-9999.0,NNW,10.4,-,N/A,,Unknown,340,2013-10-27 10:52:00
6:52 AM,34.0,30.9,89,29.87,-9999.0,North,4.6,-,N/A,,Unknown,350,2013-10-27 11:52:00
7:52 AM,33.1,30.0,89,29.89,-9999.0,North,9.2,-,N/A,,Unknown,350,2013-10-27 12:52:00
8:52 AM,34.0,30.9,89,29.93,-9999.0,North,4.6,-,N/A,,Unknown,360,2013-10-27 13:52:00
9:52 AM,37.9,32.0,79,29.96,-9999.0,NNE,8.1,16.1,N/A,,Unknown,30,2013-10-27 14:52:00
10:52 AM,39.9,32.0,73,30.00,-9999.0,NNE,10.4,18.4,N/A,,Unknown,30,2013-10-27 15:52:00
11:52 AM,41.0,30.0,65,30.02,-9999.0,NE,12.7,23.0,N/A,,Unknown,50,2013-10-27 16:52:00
12:52 PM,42.1,30.0,62,30.05,-9999.0,NE,13.8,23.0,N/A,,Unknown,50,2013-10-27 17:52:00
1:52 PM,41.0,28.9,62,30.08,-9999.0,ENE,16.1,23.0,N/A,,Unknown,60,2013-10-27 18:52:00
2:52 PM,37.9,28.0,68,30.10,-9999.0,ENE,17.3,26.5,N/A,,Unknown,60,2013-10-27 19:52:00
3:52 PM,36.0,28.0,73,30.14,-9999.0,ENE,12.7,24.2,N/A,,Unknown,70,2013-10-27 20:52:00
4:52 PM,37.0,28.0,70,30.18,-9999.0,ENE,12.7,20.7,N/A,,Unknown,60,2013-10-27 21:52:00
5:52 PM,35.1,27.0,72,30.22,-9999.0,ENE,15.0,20.7,N/A,,Unknown,60,2013-10-27 22:52:00
6:52 PM,33.1,28.0,82,30.26,-9999.0,ENE,15.0,24.2,N/A,,Unknown,60,2013-10-27 23:52:00
7:52 PM,30.9,27.0,85,30.30,-9999.0,ENE,10.4,23.0,N/A,,Unknown,60,2013-10-28 00:52:00
8:52 PM,30.0,21.9,72,30.35,-9999.0,ENE,16.1,24.2,N/A,,Unknown,60,2013-10-28 01:52:00
9:52 PM,27.0,19.9,75,30.38,-9999.0,NE,13.8,25.3,N/A,,Unknown,50,2013-10-28 02:52:00
10:52 PM,26.1,19.9,78,30.41,-9999.0,ENE,15.0,20.7,N/A,,Unknown,70,2013-10-28 03:52:00
11:52 PM,25.0,18.0,75,30.44,-9999.0,NE,10.4,21.9,N/A,,Unknown,50,2013-10-28 04:52:00